Location: Arroyo Grande
(40.2671°N, 4.2512°W)
Time: 06:08:02
(UTC+00:00)

Cosmos 1954 Rocket - Pass Details

Date: 03 February 2023
Orbit: 751 x 780 km, 74.0° (Epoch: 25 March)

Event Time Altitude Azimuth Distance (km) Brightness Sun altitude
Rises 18:07:48 0° 189° (S) 3,231 7.6 -6.3°
Reaches altitude 10° 18:10:11 10° 187° (S) 2,305 6.8 -6.7°
Maximum altitude 18:15:22 66° 106° (ESE) 836 4.0 -7.7°
Drops below altitude 10° 18:20:32 10° 25° (NNE) 2,301 6.1 -8.6°
Sets 18:22:55 0° 23° (NNE) 3,227 6.9 -9.1°
